Tracking 19827 objects as of 21-Aug-2019
HD Live streaming from Space Station
objects crossing your sky now

TVSAT 2

Track TVSAT 2 now!
TVSAT 2 is classified as:


NORAD ID: 20168
Int'l Code: 1989-062A
Perigee: 35,904.7 km
Apogee: 35,925.5 km
Inclination: 14.6 °
Period: 1,442.3 minutes
Semi major axis: 42286 km
RCS: 2.0976 m2 (large)
Launch date: August 8, 1989
Source: Germany (GER)
Launch site: FRENCH GUIANA (FRGUI)
aabbcc
Your satellite tracking list
Your tracking list is empty




NASA's NSSDC Master Catalog

Two Line Element Set (TLE):
1 20168U 89062A   19232.87015854 +.00000093 +00000-0 +00000-0 0  9999
2 20168 014.5607 015.8257 0002464 109.0341 212.7648 00.99840440109619
Source of the keplerian elements: AFSPC